This demonstration page uses our WeatherBlox Daily Observations layout. Learn more.

Left ArrowRight Arrow

Hourly Observations for June 15, 2019

Temp ( °F °C ) Dew Point ( °F °C ) Humidity (%) Winds ( mph kmh ) Pressure ( in mb ) Visibility ( mi km ) Precip ( " mm )
12:53 am 00:53 Cloudy with Light Rain 65 18.3 53 11.7 66 66 S 3 6 30.00 1016 10 16 N/A
1:53 am 01:53 Cloudy 62 16.7 57 13.9 84 84 N N/A 30.02 1017 10 16 N/A
2:53 am 02:53 Cloudy with Light Rain 62 16.7 58 14.4 86 86 N N/A 30.01 1016 10 16 N/A
3:53 am 03:53 Mostly Cloudy with Light Rain 61 16.1 57 13.9 87 87 N N/A 30.00 1016 10 16 N/A
4:53 am 04:53 Cloudy 62 16.7 56 13.3 80 80 N N/A 30.00 1016 10 16 N/A
5:53 am 05:53 Cloudy 63 17.2 55 12.8 76 76 N N/A 30.00 1016 10 16 N/A
6:53 am 06:53 Cloudy with Light Rain 64 17.8 56 13.3 75 75 N N/A 30.01 1016 10 16 N/A
7:53 am 07:53 Cloudy with Light Rain 63 17.2 58 14.4 84 84 N N/A 29.99 1016 10 16 0.01 0.25
8:53 am 08:53 Partly Cloudy 68 20 59 15 73 73 VRB 5 7 29.99 1016 10 16 N/A
9:53 am 09:53 Mostly Cloudy with Light Rain 69 20.6 57 13.9 66 66 SSW 7 11 29.98 1015 10 16 N/A
10:53 am 10:53 Cloudy 69 20.6 59 15 70 70 SW 6 9 29.98 1015 10 16 N/A
11:53 am 11:53 Partly Cloudy 69 20.6 59 15 70 70 SW 7 11 29.97 1015 10 16 0.01 0.25
12:53 pm 12:53 Mostly Cloudy with Light Rain 69 20.6 62 16.7 78 78 N N/A 29.98 1015 9 14 N/A
1:53 pm 13:53 Cloudy 71 21.7 63 17.2 76 76 N N/A 29.98 1015 10 16 N/A
2:53 pm 14:53 Cloudy with Light Rain 69 20.6 65 18.3 87 87 WSW 5 7 29.97 1015 5 8 0.04 1.02
3:53 pm 15:53 Cloudy with Light Rain 70 21.1 67 19.4 90 90 SSW 6 9 29.93 1014 7 11 0.03 0.76
4:53 pm 16:53 Cloudy 70 21.1 67 19.4 90 90 WNW 5 7 29.92 1013 10 16 0.02 0.51
5:03 pm 17:03 Cloudy with Rain 69 20.6 67 19.4 93 93 VRB 5 7 29.90 1013 1 2 0.07 1.78
5:08 pm 17:08 Cloudy with Nearby Thunderstorms 69 20.6 67 19.4 93 93 VRB 6 9 29.91 1013 1 1 0.12 3.05
5:16 pm 17:16 Cloudy with Heavy Thunderstorms 69 20.6 67 19.4 93 93 N N/A 29.90 1013 1 2 0.19 4.83
5:23 pm 17:23 Cloudy with Thunderstorms 68 20 67 19.4 96 96 SW 5 7 29.92 1013 2 3 0.20 5.08
5:31 pm 17:31 Cloudy with Nearby Thunderstorms 69 20.6 67 19.4 93 93 VRB 3 6 29.90 1013 2 3 0.22 5.59
5:42 pm 17:42 Mostly Cloudy with Nearby Thunderstorms 70 21.1 69 20.6 97 97 N N/A 29.88 1012 5 8 0.22 5.59
5:53 pm 17:53 Mostly Cloudy with Nearby Thunderstorms 70 21.1 68 20 93 93 N N/A 29.90 1012 5 8 0.23 5.84
6:03 pm 18:03 Partly Cloudy with Light Rain 70 21.1 68 20 93 93 N N/A 29.88 1012 7 11 N/A
6:53 pm 18:53 Cloudy with Mist and Fog 70 21.1 68 20 93 93 E 3 6 29.87 1011 6 10 N/A
7:53 pm 19:53 Cloudy with Mist and Fog 70 21.1 68 20 93 93 N N/A 29.84 1010 6 10 N/A
8:53 pm 20:53 Mostly Cloudy with Light Rain 72 22.2 68 20 87 87 N N/A 29.81 1010 9 14 N/A
9:53 pm 21:53 Mostly Cloudy with Nearby Thunderstorms 71 21.7 68 20 90 90 VRB 3 6 29.80 1009 7 11 0.05 1.27
10:11 pm 22:11 Mostly Cloudy with Light Rain 71 21.7 69 20.6 94 94 VRB 6 9 29.79 1009 7 11 0.01 0.25
10:53 pm 22:53 Cloudy with Heavy Rain 69 20.6 68 20 96 96 WNW 17 28 29.84 1010 2 2 0.30 7.62
11:15 pm 23:15 Cloudy with Nearby Thunderstorms 69 20.6 68 20 96 96 WSW 9 15 29.83 1010 2 2 0.22 5.59
11:19 pm 23:19 Cloudy with Nearby Thunderstorms 69 20.6 68 20 96 96 W 7 11 29.84 1011 2 3 0.22 5.59
11:28 pm 23:28 Cloudy with Nearby Thunderstorms 69 20.6 68 20 96 96 WSW 6 9 29.84 1011 3 5 0.25 6.35
11:35 pm 23:35 Cloudy with Rain 69 20.6 68 20 96 96 WSW 6 9 29.83 1010 3 5 0.27 6.86
11:43 pm 23:43 Cloudy with Nearby Thunderstorms 69 20.6 68 20 96 96 WSW 8 13 29.83 1010 7 11 0.27 6.86
11:53 pm 23:53 Cloudy 70 21.1 68 20 93 93 WSW 5 7 29.84 1011 10 16 0.27 6.86

Powered by AerisWeather